Time,TemperatureF,DewpointF,PressureIn,WindDirection,WindDirectionDegrees,WindSpeedMPH,WindSpeedGustMPH,Humidity,HourlyPrecipIn,Conditions,Clouds,dailyrainin,SolarRadiationWatts/m^2,SoftwareType,DateUTC
2013-01-10 00:02:00,21.0,16.0,-100.00,ESE,118,6.0,9.0,80,0.00,,,0.00,0.000000,,2013-01-10 06:02:00,
2013-01-10 00:32:00,20.0,15.0,-100.00,SE,135,5.0,9.0,82,0.00,,,0.00,0.000000,,2013-01-10 06:32:00,
2013-01-10 00:42:00,20.0,15.0,-100.00,SE,135,5.0,9.0,82,0.00,,,0.00,0.000000,,2013-01-10 06:42:00,
2013-01-10 00:52:00,20.0,15.0,-100.00,SE,135,5.0,9.0,82,0.00,,,0.00,0.000000,,2013-01-10 06:52:00,
2013-01-10 01:02:00,20.0,15.0,-100.00,SE,135,5.0,9.0,82,0.00,,,0.00,0.000000,,2013-01-10 07:02:00,
2013-01-10 01:22:00,19.0,15.0,-100.00,SSE,159,4.0,6.0,84,0.00,,,0.00,0.000000,,2013-01-10 07:22:00,
2013-01-10 01:32:00,19.0,15.0,-100.00,SSE,159,4.0,6.0,84,0.00,,,0.00,0.000000,,2013-01-10 07:32:00,
2013-01-10 01:42:00,19.0,15.0,-100.00,SSE,159,4.0,6.0,84,0.00,,,0.00,0.000000,,2013-01-10 07:42:00,
2013-01-10 01:52:00,19.0,15.0,-100.00,SSE,159,4.0,6.0,84,0.00,,,0.00,0.000000,,2013-01-10 07:52:00,
2013-01-10 02:02:00,19.0,15.0,-100.00,SSE,159,4.0,6.0,84,0.00,,,0.00,0.000000,,2013-01-10 08:02:00,
2013-01-10 02:33:00,23.0,17.0,-100.00,South,179,9.0,12.0,79,0.00,,,0.00,0.000000,,2013-01-10 08:33:00,
2013-01-10 02:42:00,23.0,17.0,-100.00,South,179,9.0,12.0,79,0.00,,,0.00,0.000000,,2013-01-10 08:42:00,
2013-01-10 02:53:00,23.0,17.0,-100.00,South,179,9.0,12.0,79,0.00,,,0.00,0.000000,,2013-01-10 08:53:00,
2013-01-10 03:02:00,23.0,17.0,-100.00,South,179,9.0,12.0,79,0.00,,,0.00,0.000000,,2013-01-10 09:02:00,
2013-01-10 03:32:00,24.0,19.0,-100.00,South,182,10.0,15.0,80,0.00,,,0.00,0.000000,,2013-01-10 09:32:00,
2013-01-10 03:43:00,24.0,19.0,-100.00,South,182,10.0,15.0,80,0.00,,,0.00,0.000000,,2013-01-10 09:43:00,
2013-01-10 03:52:00,24.0,19.0,-100.00,South,182,10.0,15.0,80,0.00,,,0.00,0.000000,,2013-01-10 09:52:00,
2013-01-10 04:03:00,24.0,19.0,-100.00,South,182,10.0,15.0,80,0.00,,,0.00,0.000000,,2013-01-10 10:03:00,
2013-01-10 04:33:00,24.0,18.0,-100.00,SSE,161,7.0,14.0,76,0.00,,,0.00,0.000000,,2013-01-10 10:33:00,
2013-01-10 04:42:00,24.0,18.0,-100.00,SSE,161,7.0,14.0,76,0.00,,,0.00,0.000000,,2013-01-10 10:42:00,
2013-01-10 04:52:00,24.0,18.0,-100.00,SSE,161,7.0,14.0,76,0.00,,,0.00,0.000000,,2013-01-10 10:52:00,
2013-01-10 05:02:00,24.0,18.0,-100.00,SSE,161,7.0,14.0,76,0.00,,,0.00,0.000000,,2013-01-10 11:02:00,
2013-01-10 05:23:00,28.0,17.0,-100.00,South,182,12.0,19.0,63,0.00,,,0.00,0.000000,,2013-01-10 11:23:00,
2013-01-10 05:33:00,28.0,17.0,-100.00,South,182,12.0,19.0,63,0.00,,,0.00,0.000000,,2013-01-10 11:33:00,
2013-01-10 05:43:00,28.0,17.0,-100.00,South,182,12.0,19.0,63,0.00,,,0.00,0.000000,,2013-01-10 11:43:00,
2013-01-10 05:53:00,28.0,17.0,-100.00,South,182,12.0,19.0,63,0.00,,,0.00,0.000000,,2013-01-10 11:53:00,
2013-01-10 06:02:00,28.0,17.0,-100.00,South,182,12.0,19.0,63,0.00,,,0.00,0.000000,,2013-01-10 12:02:00,
2013-01-10 08:23:00,31.0,20.0,-100.00,SSW,192,13.0,22.0,64,-99.99,,,0.00,2.000000,,2013-01-10 14:23:00,
2013-01-10 08:33:00,31.0,20.0,-100.00,SSW,192,13.0,22.0,64,-99.99,,,0.00,2.000000,,2013-01-10 14:33:00,
2013-01-10 08:43:00,31.0,20.0,-100.00,SSW,192,13.0,22.0,64,-99.99,,,0.00,2.000000,,2013-01-10 14:43:00,
2013-01-10 08:53:00,31.0,20.0,-100.00,SSW,192,13.0,22.0,64,-99.99,,,0.00,2.000000,,2013-01-10 14:53:00,
2013-01-10 09:03:00,31.0,20.0,-100.00,SSW,192,13.0,22.0,64,-99.99,,,0.00,2.000000,,2013-01-10 15:03:00,
2013-01-10 09:33:00,34.0,22.0,-100.00,South,190,13.0,21.0,60,0.00,,,0.00,60.000000,,2013-01-10 15:33:00,
2013-01-10 09:43:00,34.0,22.0,-100.00,South,190,13.0,21.0,60,0.00,,,0.00,60.000000,,2013-01-10 15:43:00,
2013-01-10 09:53:00,34.0,22.0,-100.00,South,190,13.0,21.0,60,0.00,,,0.00,60.000000,,2013-01-10 15:53:00,
2013-01-10 10:02:00,34.0,22.0,-100.00,South,190,13.0,21.0,60,0.00,,,0.00,60.000000,,2013-01-10 16:02:00,
2013-01-10 10:33:00,37.0,22.0,-100.00,SSW,194,14.0,27.0,55,0.00,,,0.00,194.000000,,2013-01-10 16:33:00,
2013-01-10 10:43:00,37.0,22.0,-100.00,SSW,194,14.0,27.0,55,0.00,,,0.00,194.000000,,2013-01-10 16:43:00,
2013-01-10 10:53:00,37.0,22.0,-100.00,SSW,194,14.0,27.0,55,0.00,,,0.00,194.000000,,2013-01-10 16:53:00,
2013-01-10 11:03:00,37.0,22.0,-100.00,SSW,194,14.0,27.0,55,0.00,,,0.00,194.000000,,2013-01-10 17:03:00,
2013-01-10 11:33:00,40.0,23.0,-100.00,SSW,194,16.0,24.0,50,0.00,,,0.00,293.000000,,2013-01-10 17:33:00,
2013-01-10 11:43:00,40.0,23.0,-100.00,SSW,194,16.0,24.0,50,0.00,,,0.00,293.000000,,2013-01-10 17:43:00,
2013-01-10 11:53:00,40.0,23.0,-100.00,SSW,194,16.0,24.0,50,0.00,,,0.00,293.000000,,2013-01-10 17:53:00,
2013-01-10 12:03:00,40.0,23.0,-100.00,SSW,194,16.0,24.0,50,0.00,,,0.00,293.000000,,2013-01-10 18:03:00,
2013-01-10 12:23:00,46.0,22.0,-100.00,SSW,202,15.0,25.0,38,0.00,,,0.00,367.000000,,2013-01-10 18:23:00,
2013-01-10 12:33:00,46.0,22.0,-100.00,SSW,202,15.0,25.0,38,0.00,,,0.00,367.000000,,2013-01-10 18:33:00,
2013-01-10 12:43:00,46.0,22.0,-100.00,SSW,202,15.0,25.0,38,0.00,,,0.00,367.000000,,2013-01-10 18:43:00,
2013-01-10 12:53:00,46.0,22.0,-100.00,SSW,202,15.0,25.0,38,0.00,,,0.00,367.000000,,2013-01-10 18:53:00,
2013-01-10 13:03:00,46.0,22.0,-100.00,SSW,202,15.0,25.0,38,0.00,,,0.00,367.000000,,2013-01-10 19:03:00,
2013-01-10 13:33:00,46.0,20.0,-100.00,SSW,197,16.0,28.0,35,0.00,,,-99.99,370.000000,,2013-01-10 19:33:00,
2013-01-10 13:43:00,46.0,20.0,-100.00,SSW,197,16.0,28.0,35,0.00,,,-99.99,370.000000,,2013-01-10 19:43:00,
2013-01-10 13:53:00,46.0,20.0,-100.00,SSW,197,16.0,28.0,35,0.00,,,-99.99,370.000000,,2013-01-10 19:53:00,
2013-01-10 14:03:00,46.0,20.0,-100.00,SSW,197,16.0,28.0,35,0.00,,,-99.99,370.000000,,2013-01-10 20:03:00,
2013-01-10 14:24:00,45.0,20.0,-100.00,South,179,14.0,27.0,36,0.00,,,0.00,237.000000,,2013-01-10 20:24:00,
2013-01-10 14:33:00,45.0,20.0,-100.00,South,179,14.0,27.0,36,0.00,,,0.00,237.000000,,2013-01-10 20:33:00,
2013-01-10 14:43:00,45.0,20.0,-100.00,South,179,14.0,27.0,36,0.00,,,0.00,237.000000,,2013-01-10 20:43:00,
2013-01-10 14:53:00,45.0,20.0,-100.00,South,179,14.0,27.0,36,0.00,,,0.00,237.000000,,2013-01-10 20:53:00,
2013-01-10 15:03:00,45.0,20.0,-100.00,South,179,14.0,27.0,36,0.00,,,0.00,237.000000,,2013-01-10 21:03:00,
2013-01-10 15:33:00,42.0,19.0,-100.00,South,181,15.0,23.0,39,0.00,,,0.00,138.000000,,2013-01-10 21:33:00,
2013-01-10 15:43:00,42.0,19.0,-100.00,South,181,15.0,23.0,39,0.00,,,0.00,138.000000,,2013-01-10 21:43:00,
2013-01-10 15:53:00,42.0,19.0,-100.00,South,181,15.0,23.0,39,0.00,,,0.00,138.000000,,2013-01-10 21:53:00,
2013-01-10 16:03:00,42.0,19.0,-100.00,South,181,15.0,23.0,39,0.00,,,0.00,138.000000,,2013-01-10 22:03:00,
2013-01-10 16:27:00,39.0,17.0,-100.00,South,178,11.0,22.0,41,0.00,,,0.00,68.000000,,2013-01-10 22:27:00,
2013-01-10 16:34:00,39.0,17.0,-100.00,South,178,11.0,22.0,41,0.00,,,0.00,68.000000,,2013-01-10 22:34:00,
2013-01-10 16:44:00,39.0,17.0,-100.00,South,178,11.0,22.0,41,0.00,,,0.00,68.000000,,2013-01-10 22:44:00,
2013-01-10 17:02:00,39.0,17.0,-100.00,South,178,11.0,22.0,41,0.00,,,0.00,68.000000,,2013-01-10 23:02:00,
2013-01-10 17:33:00,39.0,16.0,-100.00,South,171,8.0,20.0,39,0.00,,,0.00,7.000000,,2013-01-10 23:33:00,
2013-01-10 17:43:00,39.0,16.0,-100.00,South,171,8.0,20.0,39,0.00,,,0.00,7.000000,,2013-01-10 23:43:00,
2013-01-10 17:53:00,39.0,16.0,-100.00,South,171,8.0,20.0,39,0.00,,,0.00,7.000000,,2013-01-10 23:53:00,
2013-01-10 18:02:00,39.0,16.0,-100.00,South,171,8.0,20.0,39,0.00,,,0.00,7.000000,,2013-01-11 00:02:00,
2013-01-10 18:33:00,39.0,16.0,-100.00,South,174,11.0,16.0,38,0.00,,,0.00,0.000000,,2013-01-11 00:33:00,
2013-01-10 18:43:00,39.0,16.0,-100.00,South,174,11.0,16.0,38,0.00,,,0.00,0.000000,,2013-01-11 00:43:00,
2013-01-10 18:53:00,39.0,16.0,-100.00,South,174,11.0,16.0,38,0.00,,,0.00,0.000000,,2013-01-11 00:53:00,
2013-01-10 19:03:00,39.0,16.0,-100.00,South,174,11.0,16.0,38,0.00,,,0.00,0.000000,,2013-01-11 01:03:00,
2013-01-10 19:34:00,39.0,14.0,-100.00,SSE,165,8.0,18.0,35,0.00,,,0.00,0.000000,,2013-01-11 01:34:00,
2013-01-10 19:43:00,39.0,14.0,-100.00,SSE,165,8.0,18.0,35,0.00,,,0.00,0.000000,,2013-01-11 01:43:00,
2013-01-10 19:53:00,39.0,14.0,-100.00,SSE,165,8.0,18.0,35,0.00,,,0.00,0.000000,,2013-01-11 01:53:00,
2013-01-10 20:02:00,39.0,14.0,-100.00,SSE,165,8.0,18.0,35,0.00,,,0.00,0.000000,,2013-01-11 02:02:00,
2013-01-10 20:24:00,39.0,13.0,-100.00,SSE,161,9.0,15.0,34,0.00,,,0.00,0.000000,,2013-01-11 02:24:00,
2013-01-10 20:33:00,39.0,13.0,-100.00,SSE,161,9.0,15.0,34,0.00,,,0.00,0.000000,,2013-01-11 02:33:00,
2013-01-10 20:43:00,39.0,13.0,-100.00,SSE,161,9.0,15.0,34,0.00,,,0.00,0.000000,,2013-01-11 02:43:00,
2013-01-10 20:54:00,39.0,13.0,-100.00,SSE,161,9.0,15.0,34,0.00,,,0.00,0.000000,,2013-01-11 02:54:00,
2013-01-10 21:02:00,39.0,13.0,-100.00,SSE,161,9.0,15.0,34,0.00,,,0.00,0.000000,,2013-01-11 03:02:00,
2013-01-10 21:33:00,37.0,11.0,-100.00,South,186,8.0,23.0,34,0.00,,,0.00,0.000000,,2013-01-11 03:33:00,
2013-01-10 21:43:00,37.0,11.0,-100.00,South,186,8.0,23.0,34,0.00,,,0.00,0.000000,,2013-01-11 03:43:00,
2013-01-10 21:53:00,37.0,11.0,-100.00,South,186,8.0,23.0,34,0.00,,,0.00,0.000000,,2013-01-11 03:53:00,
2013-01-10 22:02:00,37.0,11.0,-100.00,South,186,8.0,23.0,34,0.00,,,0.00,0.000000,,2013-01-11 04:02:00,
2013-01-10 22:33:00,33.0,25.0,-100.00,SE,146,6.0,13.0,73,0.03,,,0.03,0.000000,,2013-01-11 04:33:00,
2013-01-10 22:43:00,33.0,25.0,-100.00,SE,146,6.0,13.0,73,0.03,,,0.03,0.000000,,2013-01-11 04:43:00,
2013-01-10 22:53:00,33.0,25.0,-100.00,SE,146,6.0,13.0,73,0.03,,,0.03,0.000000,,2013-01-11 04:53:00,
2013-01-10 23:03:00,33.0,25.0,-100.00,SE,146,6.0,13.0,73,0.03,,,0.03,0.000000,,2013-01-11 05:03:00,
2013-01-10 23:33:00,33.0,29.0,-100.00,SSE,154,8.0,13.0,86,0.08,,,0.11,0.000000,,2013-01-11 05:33:00,
2013-01-10 23:43:00,33.0,29.0,-100.00,SSE,154,8.0,13.0,86,0.08,,,0.11,0.000000,,2013-01-11 05:43:00,
2013-01-10 23:53:00,33.0,29.0,-100.00,SSE,154,8.0,13.0,86,0.08,,,0.11,0.000000,,2013-01-11 05:53:00,